Location: Bacharowice
(49.9333°N, 19.5833°E)
Time: 08:24:21
(UTC+00:00)

Cosmos 2344 - Pass Details

Date: 01 October 2021
Orbit: 1235 x 3007 km, 63.3° (Epoch: 19 October)

Event Time Altitude Azimuth Distance (km) Brightness Sun altitude
Rises 20:24:00 0° 313° (NW) 4,382 7.4 -36.4°
Reaches altitude 10° 20:26:36 10° 317° (NW) 3,520 6.6 -36.7°
Maximum altitude 20:35:13 67° 40° (NE) 1,835 4.2 -37.5°
Enters shadow 20:35:49 66° 60° (ENE) 1,874 4.2 -37.6°
